0 HST 1 20580U 90037B 26171.07700591 .00005529 00000-0 17304-3 0 9999 2 20580 28.4722 60.8244 0001640 173.2571 186.8048 15.30775367789017 0 ISS (ZARYA) 1 25544U 98067A 26171.41461525 .00008813 00000-0 16600-3 0 9991 2 25544 51.6327 284.1189 0004557 208.5194 151.5545 15.49333088572250 0 CXO 1 25867U 99040B 26172.02247085 .00000453 00000-0 00000-0 0 9998 2 25867 56.2474 116.4966 7828330 310.2765 0.2930 0.37807394 17335